HULIANWANG DIGUI-61

导读

HULIANWANG DIGUI-61是一颗由中国发射的互联网低轨卫星,于2025年8月13日成功发射入轨。该卫星是中国低轨互联网星座建设中的组成部分,旨在拓展全球互联网覆盖范围,提升网络接入服务能力,为不同区域提供更稳定便捷的卫星互联网通信支持,推动空间互联网基础设施的持续完善。

Basic Information
目录编号:
65167
目录名称:
HULIANWANG DIGUI-61
国际标识:
2025-174D
轨道中心:
EARTH
卫星名称:
HULIANWANG DIGUI-61
卫星全名:
HULIANWANG DIGUI-61
卫星状态:
在轨 (已飞行395 天)
发射日期:
2025-08-13 UTC
国别 :
中国 (CN)
星等 :
--
This satellite is enrolled in the Space Conjunction Data Service (SCDS) and the current flight risk assessment level is: No High Risk
Orbit Information
数据来源 国际轨道数据 AOE轨道数据
星历时间 2026-09-12T06:38:27+0800
7小时前
查看轨道信息
2026-09-10T09:00:00+0800
2天前
查看轨道信息
半长轴 7546.099km 7546.098km
偏心率 0.0002364 0.0002204
轨道倾角 86.497° 86.497°
近地点辐角 84.323° 87.476°
升交点赤经 222.741° 223.383°
平近点角 275.817° 210.822°
近地点 1166.178km 1166.297km
远地点 1169.746km 1169.625km
周期 108.729分钟 108.728分钟
每日圈数 13.243996 13.243998
Detailed Information
使用方式:
暂无
2D Orbit Map
3D Orbit Map
Orbit Altitude Analysis Chart
Orbit Inclination Analysis Chart
Orbit Comprehensive Analysis Chart
View Comprehensive Chart
Conjunction Data List
Event ID Objects TCA Miss Dist (km) Collision Risk Probability Collision Risk Index (CRI) Action
CDM_260913-124301-286106-516724
2026-09-13T
12:43:20+0000
1.934 km
极远距离
3.026179E-6 低风险 0.45
Miss Distance Evolution Trend with All Objects
Collision Probability Evolution Trend with All Objects